Showing default

SYRACUSE 4A, 49333

Orbit data source: Space-Track

SYRACUSE 4A, 49333 is a payload satellite owned by DGA (FR) in GEO that was launched on Sun, 24 Oct 2021 UTC via an ARIANE 5ECA+ launch vehicle from the French Guiana (FRGUI). Payload-class satellites include a variety of spacecraft equipped with specific instruments for various scientific and technological missions. These include communications satellites like Starlink; space stations such as the ISS; scientific satellites like the Hubble; Earth observation satellites from companies like Planet Labs, Umbra, and HawkEye 360; GPS; miniature CubeSats for education and research; and military/defense satellites.

Not visible in the next 10 days
Identifier
49333, 2021-095B
Orbit
GEO
Country
Flag of FRFR
Related business
Manufacturer
Thales Alenia
Mission
Operational Defense Communications
Bus & Motor
SPACEBUS NEO100, XPS/PPS-5000
Mass
3,852 kg wet, ~3,200 kg dry
Launch date (UTC)
2021-10-24 (4 years ago)
Launch vehicle
ARIANE 5ECA+
Launch site
French Guiana (FRGUI)
Object type
Payload
Rocket body
Debris
Shape & HBR
Box + 2 Pan, 15.0 m
Radar Cross Section
34.063 m², Medium (>0.1 m² and < 1m²)

Expand to show TLE details & history
Last TLE update: 6 hours ago

TLE from 6 hours ago
0 SYRACUSE 4A
1 49333U 21095B   26071.58076963  .00000136  00000-0  00000-0 0  9999
2 49333   0.0180 186.5604 0001516 162.2038  76.0274  1.00268101 16976
Epoch: 2026-03-12T13:56Z
TLE epoch observation values (Epoch: 2026-03-12T13:56:18.496Z)
Latitude
-0.03237°
Longitude
45.52157°
Altitude
35,785.578 km
Speed
3.075 km/s
True Right ascension
04h 19m 18s
True Declination
0° 01' 56"
Sunlit
Object was in daylight at epoch
Visualization orbit readout
Latitude
Unknown
Longitude
Unknown
Altitude
Unknown
Speed
Unknown
Apparent Right ascension
Unknown
Apparent Declination
Unknown
Sunlit
N/A
Visualization observer readout
Local Sidereal Time
00:07:55
Azimuth
Unknown
Elevation
Unknown
Doppler factor
Unknown
Orbital elements
Apogee altitude
35,795.091 km
Perigee altitude
35,782.306 km
Semi-major axis
42,166.835 km
Eccentricity
0.00015
Inclination
0.018°
RAAN
186.5604°
Arg. of periapsis
162.2038°
True anomaly
76.04426°
Mean anomaly
76.0274°
Eccentric anomaly
76.03583°
Mean motion
0.25066 °/min
Orbital period
1,436.2 mins
BSTAR
0
Loading maneuver chart data...
Computing Atmospheric mass density...
Loading historical data...
Loading historical data...
Loading historical data...
Loading historical data...
Loading historical data...
Loading historical data...
Loading historical data...
Other satellites on launch #95 in the year 2021 (2021-10-24 UTC)

Documentation

Showing up to 5 results
|